| time (UTC) | temp C | wind direction | speed KPH | gust KPH | rain 1hr cm | rain 24hr cm | rain mn cm | humidity % | barometer mb |
| 20260904034556 | 23 | 0 | 0.0 | 0.0 | 0.00 | 0.00 | 0.00 | 67 | 1021.4 |
| 20260904033102 | 23 | 0 | 0.0 | 0.0 | 0.00 | 0.00 | 0.00 | 67 | 1021.3 |
| 20260904031605 | 23 | 0 | 0.0 | 1.6 | 0.00 | 0.00 | 0.00 | 67 | 1021.0 |
| 20260904030057 | 24 | 177 | 1.6 | 6.4 | 0.00 | 0.00 | 0.00 | 67 | 1021.2 |
| 20260904024600 | 24 | 177 | 0.0 | 0.0 | 0.00 | 0.00 | 0.00 | 67 | 1020.8 |
| 20260904023107 | 24 | 0 | 0.0 | 8.0 | 0.00 | 0.00 | 0.00 | 67 | 1021.0 |
| 20260904021600 | 25 | 183 | 1.6 | 4.8 | 0.00 | 0.00 | 0.00 | 67 | 1021.0 |
| 20260904020101 | 25 | 183 | 0.0 | 8.0 | 0.00 | 0.00 | 0.00 | 67 | 1021.3 |
| 20260904014616 | 25 | 183 | 4.8 | 11.3 | 0.00 | 0.00 | 0.00 | 67 | 1021.5 |
| 20260904013118 | 25 | 0 | 1.6 | 14.5 | 0.00 | 0.00 | 0.00 | 67 | 1021.5 |
| 20260904011558 | 25 | 183 | 6.4 | 14.5 | 0.00 | 0.00 | 0.00 | 67 | 1021.8 |
| 20260904010112 | 25 | 183 | 1.6 | 6.4 | 0.00 | 0.00 | 0.00 | 67 | 1021.9 |
| 20260904004616 | 25 | 183 | 1.6 | 6.4 | 0.00 | 0.00 | 0.00 | 67 | 1022.2 |
| 20260904003123 | 23 | 0 | 0.0 | 0.0 | 0.00 | 0.00 | 0.00 | 66 | 1021.7 |
| 20260904001555 | 24 | 0 | 0.0 | 0.0 | 0.00 | 0.00 | 0.00 | 66 | 1021.6 |
| 20260904000054 | 24 | 0 | 0.0 | 0.0 | 0.00 | 0.00 | 0.00 | 66 | 1021.5 |
| 20260903234601 | 24 | 0 | 0.0 | 0.0 | 0.00 | 0.00 | 0.00 | 66 | 1021.6 |
| 20260903233103 | 24 | 0 | 0.0 | 0.0 | 0.00 | 0.00 | 0.00 | 66 | 1021.3 |
| 20260903231559 | 24 | 0 | 0.0 | 0.0 | 0.00 | 0.00 | 0.00 | 66 | 1021.4 |
| 20260903224554 | 25 | 0 | 0.0 | 0.0 | 0.00 | 0.00 | 0.00 | 66 | 1021.2 |
| 20260903223109 | 25 | 0 | 0.0 | 0.0 | 0.00 | 0.00 | 0.00 | 66 | 1021.1 |
| 20260903221556 | 25 | 0 | 0.0 | 0.0 | 0.00 | 0.00 | 0.00 | 66 | 1020.8 |
| 20260903220057 | 25 | 0 | 0.0 | 0.0 | 0.00 | 0.00 | 0.00 | 66 | 1020.9 |
| 20260903214553 | 26 | 0 | 0.0 | 0.0 | 0.00 | 0.00 | 0.00 | 66 | 1020.8 |
| 20260903213058 | 26 | 0 | 0.0 | 0.0 | 0.00 | 0.00 | 0.00 | 66 | 1020.8 |
| 20260903211608 | 26 | 0 | 0.0 | 3.2 | 0.00 | 0.00 | 0.00 | 66 | 1020.8 |
| 20260903210101 | 26 | 183 | 1.6 | 6.4 | 0.00 | 0.00 | 0.00 | 66 | 1020.8 |
| 20260903204603 | 26 | 184 | 1.6 | 6.4 | 0.00 | 0.00 | 0.00 | 66 | 1020.7 |
| 20260903203059 | 27 | 183 | 1.6 | 3.2 | 0.00 | 0.00 | 0.00 | 66 | 1020.6 |
| 20260903201602 | 26 | 183 | 1.6 | 1.6 | 0.00 | 0.00 | 0.00 | 66 | 1020.3 |
| 20260903200056 | 27 | 183 | 1.6 | 3.2 | 0.00 | 0.00 | 0.00 | 66 | 1020.3 |
| 20260903194559 | 27 | 0 | 0.0 | 3.2 | 0.00 | 0.00 | 0.00 | 66 | 1020.0 |
| 20260903193105 | 27 | 183 | 0.0 | 3.2 | 0.00 | 0.00 | 0.00 | 66 | 1020.0 |
| 20260903191554 | 27 | 183 | 0.0 | 4.8 | 0.00 | 0.00 | 0.00 | 66 | 1019.8 |
| 20260903190059 | 27 | 183 | 0.0 | 3.2 | 0.00 | 0.00 | 0.00 | 66 | 1019.9 |
| 20260903184602 | 27 | 183 | 3.2 | 6.4 | 0.00 | 0.00 | 0.00 | 66 | 1019.9 |
| 20260903183102 | 28 | 183 | 3.2 | 8.0 | 0.00 | 0.00 | 0.00 | 66 | 1020.0 |
| 20260903181556 | 28 | 183 | 4.8 | 9.7 | 0.00 | 0.00 | 0.00 | 66 | 1020.0 |
| 20260903180055 | 28 | 183 | 4.8 | 9.7 | 0.00 | 0.00 | 0.00 | 67 | 1020.0 |
| 20260903174611 | 28 | 183 | 6.4 | 11.3 | 0.00 | 0.00 | 0.00 | 67 | 1020.1 |
| 20260903173105 | 29 | 183 | 9.7 | 17.7 | 0.00 | 0.00 | 0.00 | 67 | 1020.0 |
| 20260903171601 | 29 | 183 | 8.0 | 17.7 | 0.00 | 0.00 | 0.00 | 67 | 1020.0 |
| 20260903170055 | 29 | 183 | 9.7 | 12.9 | 0.00 | 0.00 | 0.00 | 67 | 1019.8 |
| 20260903164608 | 30 | 184 | 11.3 | 17.7 | 0.00 | 0.00 | 0.00 | 67 | 1020.0 |
| 20260903163058 | 29 | 183 | 8.0 | 17.7 | 0.00 | 0.00 | 0.00 | 67 | 1020.0 |
| 20260903161558 | 30 | 183 | 12.9 | 24.1 | 0.00 | 0.00 | 0.00 | 67 | 1020.0 |
| 20260903160110 | 32 | 158 | 8.0 | 19.3 | 0.00 | 0.00 | 0.00 | 68 | 1020.1 |
| 20260903154601 | 33 | 155 | 6.4 | 11.3 | 0.00 | 0.00 | 0.00 | 68 | 1019.8 |
| 20260903153109 | 33 | 155 | 6.4 | 11.3 | 0.00 | 0.00 | 0.00 | 69 | 1019.9 |
| 20260903151555 | 33 | 155 | 6.4 | 12.9 | 0.00 | 0.00 | 0.00 | 69 | 1020.0 |
| 20260903150105 | 33 | 155 | 3.2 | 9.7 | 0.00 | 0.00 | 0.00 | 69 | 1019.9 |
| 20260903144601 | 34 | 155 | 6.4 | 11.3 | 0.00 | 0.00 | 0.00 | 69 | 1020.1 |
| 20260903143107 | 34 | 155 | 6.4 | 12.9 | 0.00 | 0.00 | 0.00 | 69 | 1020.2 |
| 20260903141555 | 34 | 155 | 4.8 | 11.3 | 0.00 | 0.00 | 0.00 | 69 | 1020.3 |
| 20260903140105 | 34 | 155 | 4.8 | 11.3 | 0.00 | 0.00 | 0.00 | 69 | 1020.5 |
| 20260903134610 | 33 | 161 | 4.8 | 9.7 | 0.00 | 0.00 | 0.00 | 69 | 1020.5 |
| 20260903133109 | 33 | 161 | 4.8 | 9.7 | 0.00 | 0.00 | 0.00 | 69 | 1020.6 |
| 20260903131556 | 33 | 161 | 4.8 | 12.9 | 0.00 | 0.00 | 0.00 | 69 | 1020.6 |
| 20260903130125 | 33 | 161 | 4.8 | 11.3 | 0.00 | 0.00 | 0.00 | 69 | 1020.6 |
| 20260903124611 | 32 | 162 | 6.4 | 11.3 | 0.00 | 0.00 | 0.00 | 69 | 1020.5 |
| 20260903123055 | 33 | 163 | 4.8 | 12.9 | 0.00 | 0.00 | 0.00 | 69 | 1020.5 |
| 20260903121554 | 32 | 165 | 6.4 | 11.3 | 0.00 | 0.00 | 0.00 | 69 | 1020.5 |
| 20260903120126 | 32 | 166 | 6.4 | 9.7 | 0.00 | 0.00 | 0.00 | 69 | 1020.7 |
| 20260903114558 | 31 | 167 | 8.0 | 14.5 | 0.00 | 0.00 | 0.00 | 69 | 1020.8 |
| 20260903113057 | 31 | 170 | 6.4 | 12.9 | 0.00 | 0.00 | 0.00 | 69 | 1020.8 |
| 20260903111556 | 31 | 171 | 6.4 | 11.3 | 0.00 | 0.00 | 0.00 | 69 | 1021.0 |
| 20260903110058 | 31 | 172 | 4.8 | 9.7 | 0.00 | 0.00 | 0.00 | 69 | 1021.0 |
| 20260903104603 | 30 | 174 | 4.8 | 12.9 | 0.00 | 0.00 | 0.00 | 68 | 1021.0 |
| 20260903103057 | 30 | 174 | 6.4 | 12.9 | 0.00 | 0.00 | 0.00 | 68 | 1021.0 |
| 20260903101554 | 31 | 176 | 4.8 | 11.3 | 0.00 | 0.00 | 0.00 | 68 | 1021.0 |
| 20260903100046 | 30 | 176 | 3.2 | 8.0 | 0.00 | 0.00 | 0.00 | 68 | 1020.7 |
| 20260903094607 | 31 | 175 | 4.8 | 8.0 | 0.00 | 0.00 | 0.00 | 68 | 1020.8 |
| 20260903093057 | 30 | 176 | 1.6 | 6.4 | 0.00 | 0.00 | 0.00 | 68 | 1020.8 |
| 20260903091551 | 29 | 176 | 1.6 | 3.2 | 0.00 | 0.00 | 0.00 | 68 | 1020.7 |
| 20260903090106 | 28 | 0 | 0.0 | 0.0 | 0.00 | 0.00 | 0.00 | 68 | 1020.6 |
| 20260903084556 | 27 | 0 | 0.0 | 0.0 | 0.00 | 0.00 | 0.00 | 67 | 1020.5 |
| 20260903083101 | 26 | 0 | 0.0 | 0.0 | 0.00 | 0.00 | 0.00 | 67 | 1020.5 |
| 20260903081615 | 25 | 0 | 0.0 | 0.0 | 0.00 | 0.00 | 0.00 | 67 | 1020.2 |
| 20260903080055 | 25 | 0 | 0.0 | 0.0 | 0.00 | 0.00 | 0.00 | 66 | 1020.4 |
| 20260903074605 | 25 | 0 | 0.0 | 0.0 | 0.00 | 0.00 | 0.00 | 66 | 1020.4 |
| 20260903073135 | 24 | 0 | 0.0 | 0.0 | 0.00 | 0.00 | 0.00 | 66 | 1020.3 |
| 20260903071618 | 23 | 0 | 0.0 | 0.0 | 0.00 | 0.00 | 0.00 | 66 | 1020.2 |
| 20260903070057 | 22 | 176 | 0.0 | 1.6 | 0.00 | 0.00 | 0.00 | 65 | 1020.1 |
| 20260903064558 | 22 | 0 | 0.0 | 1.6 | 0.00 | 0.00 | 0.00 | 65 | 1020.1 |
| 20260903063058 | 22 | 0 | 0.0 | 0.0 | 0.00 | 0.00 | 0.00 | 65 | 1019.9 |
| 20260903061555 | 21 | 0 | 0.0 | 0.0 | 0.00 | 0.00 | 0.00 | 65 | 1019.9 |
| 20260903060118 | 21 | 0 | 0.0 | 1.6 | 0.00 | 0.00 | 0.00 | 65 | 1019.6 |
| 20260903054555 | 21 | 0 | 0.0 | 0.0 | 0.00 | 0.00 | 0.00 | 65 | 1019.6 |
| 20260903053056 | 21 | 0 | 0.0 | 0.0 | 0.00 | 0.00 | 0.00 | 65 | 1019.6 |
| 20260903051608 | 21 | 0 | 0.0 | 0.0 | 0.00 | 0.00 | 0.00 | 65 | 1019.8 |
| 20260903050101 | 21 | 0 | 0.0 | 0.0 | 0.00 | 0.00 | 0.00 | 65 | 1019.9 |
| 20260903044553 | 21 | 0 | 0.0 | 0.0 | 0.00 | 0.00 | 0.00 | 65 | 1019.6 |
| 20260903043054 | 21 | 0 | 0.0 | 0.0 | 0.00 | 0.00 | 0.00 | 65 | 1019.7 |
| 20260903041602 | 21 | 0 | 0.0 | 1.6 | 0.00 | 0.00 | 0.00 | 65 | 1019.7 |